Theta_e
292 293 292 293 294 293 294 293 288 283 284 288 288 293 294 294 296 295 295 300 302 301 301 302 303 303 302 303 306 307 307 307 310 314 316 317 319 321
291 291 291 292 292 293 292 291 290 287 283 288 289 291 293 294 295 294 294 297 299 299 299 301 301 300 300 302 303 303 304 306 308 309 312 315 318 319
290 290 290 291 290 290 290 290 289 288 284 287 290 292 291 290 291 293 293 293 294 297 297 298 298 299 299 300 301 301 302 304 305 308 309 311 316 318
289 289 289 290 289 289 289 288 288 288 286 284 287 288 288 290 290 290 291 292 292 295 296 296 297 297 298 299 300 302 303 304 303 302 305 307 310 315
288 288 288 288 287 288 287 287 287 288 288 286 285 287 288 289 288 288 287 289 291 294 295 295 295 296 297 298 300 301 301 302 303 303 305 306 310 311
288 288 288 288 287 286 286 286 287 287 286 285 285 285 286 288 287 284 284 287 287 289 291 292 293 294 295 297 298 299 299 300 299 301 303 305 308 312
287 288 288 289 290 289 287 287 286 286 285 284 284 284 285 283 282 284 283 284 285 287 287 288 289 290 292 294 295 296 298 298 298 299 302 303 305 307
286 287 287 289 288 289 290 290 289 285 283 283 283 283 282 282 282 282 282 281 280 286 285 285 288 287 289 291 294 295 296 297 297 299 300 301 303 305
285 285 286 287 287 287 288 289 289 289 289 284 282 282 280 282 283 282 283 282 280 283 284 282 286 286 290 291 294 294 295 296 296 297 299 300 303 304
285 285 285 285 286 286 286 285 286 286 285 285 284 283 283 284 284 284 282 282 283 284 286 281 286 284 288 289 292 292 294 294 295 296 298 301 302 303
285 285 285 285 287 288 285 284 282 282 286 287 287 287 287 287 286 283 280 279 278 280 284 282 283 284 284 285 287 291 293 292 294 295 297 298 298 300
285 285 287 286 288 288 284 282 279 280 282 282 282 283 283 283 285 283 282 278 278 277 281 280 280 281 279 284 287 287 288 290 292 293 294 295 296 295
283 283 284 287 288 287 286 281 281 283 282 280 280 280 281 281 282 282 282 280 278 277 281 281 280 280 280 281 283 285 286 287 288 289 292 296 299 298
282 283 284 287 286 285 284 284 285 284 280 279 279 278 279 279 280 280 281 281 282 281 282 282 280 280 280 280 279 283 284 285 286 287 290 298 303 302
283 284 287 284 284 282 283 283 283 279 278 278 277 277 278 279 280 280 281 281 282 282 284 283 283 283 281 278 278 279 281 284 286 285 287 287 289 295
285 284 283 282 282 281 280 280 279 279 278 278 277 278 278 278 278 280 279 279 279 280 285 284 282 281 278 280 280 278 281 282 284 285 286 286 287 290
283 281 279 278 277 277 278 278 278 278 278 277 277 276 277 277 278 279 279 280 280 279 278 280 281 282 281 280 279 281 283 282 284 284 285 284 285 289
280 277 276 276 276 276 276 276 277 278 277 277 276 276 276 276 276 278 281 280 279 278 277 277 277 277 280 281 283 281 282 282 284 285 285 284 284 287
277 276 276 276 276 276 276 276 275 276 277 276 276 276 276 277 277 279 278 279 279 278 278 277 275 274 276 274 279 285 281 282 283 282 284 284 284 286
277 276 276 276 276 276 276 276 276 276 276 276 276 276 276 277 277 278 277 277 277 277 277 277 274 274 273 274 276 279 285 282 281 281 282 285 287 291
276 276 276 276 276 276 276 276 276 275 276 275 275 276 277 277 278 277 277 279 280 277 276 276 276 280 276 278 277 278 281 286 285 282 282 281 282 284
276 276 276 276 276 276 276 276 275 275 275 275 276 277 278 279 278 277 277 276 278 278 278 279 279 279 278 277 276 277 279 282 285 287 286 285 281 279
276 276 276 276 276 276 276 275 275 275 276 276 277 278 279 277 278 279 278 278 279 279 279 279 278 278 278 277 278 278 279 280 282 281 282 287 287 288
Wind_Speed
10 10 10 9 9 9 9 10 11 17 18 14 14 13 10 12 16 16 19 26 29 30 32 34 33 30 34 36 35 32 31 31 29 28 29 29 26 27
9 12 12 10 11 10 10 10 10 12 18 14 15 17 16 12 16 16 17 26 28 32 32 31 29 31 34 35 34 35 33 31 29 31 30 30 28 29
13 13 14 14 11 10 10 11 11 11 14 16 14 15 19 18 16 15 17 15 15 27 31 33 32 33 35 36 35 35 34 32 31 26 29 30 29 27
14 14 15 11 14 13 11 14 12 13 14 20 16 15 19 17 18 17 14 13 16 25 31 33 35 34 33 34 33 34 30 28 27 30 28 29 30 29
15 15 15 15 14 12 13 12 13 12 12 14 17 14 15 14 15 14 16 16 13 22 28 31 31 33 34 36 33 31 30 26 28 26 24 24 27 27
15 15 15 14 15 15 14 15 13 13 14 14 14 15 14 15 12 15 16 13 14 14 20 26 31 31 34 34 29 29 28 25 29 28 25 23 23 22
16 16 14 16 23 22 13 13 15 14 14 15 15 13 10 14 14 14 16 16 16 13 14 13 13 13 13 23 22 25 27 27 28 28 26 24 21 21
16 15 14 19 18 25 25 30 25 18 18 16 16 12 15 15 16 14 15 16 20 9 14 16 12 14 14 12 24 27 29 29 30 28 26 25 23 21
16 15 15 12 19 15 23 28 25 29 30 19 19 15 19 18 18 19 17 16 18 16 15 17 12 14 12 12 24 30 29 27 28 29 27 26 24 23
16 16 16 16 17 21 18 18 17 16 19 15 18 17 17 18 19 17 19 20 15 13 12 17 10 14 11 11 22 28 28 29 30 30 27 24 23 22
15 15 18 18 24 30 20 18 20 18 20 28 29 33 34 32 27 15 13 14 15 13 9 14 12 11 12 13 12 25 16 21 24 23 22 20 20 20
14 15 23 24 30 31 21 20 19 18 17 18 16 17 19 19 27 16 12 14 15 14 10 13 13 12 11 6 6 9 9 20 25 26 25 27 26 12
13 13 12 28 31 31 34 16 19 22 21 14 14 13 13 13 11 12 13 13 14 15 13 13 11 11 10 12 9 8 9 11 11 14 24 28 28 21
15 13 16 29 31 32 24 30 31 26 12 13 13 13 13 12 12 13 16 16 14 18 17 16 11 11 12 10 10 7 8 10 7 8 9 7 14 20
14 24 27 31 29 19 26 29 26 12 12 12 12 13 13 14 16 15 15 16 16 17 14 16 13 9 4 7 9 9 10 4 5 5 6 9 6 5
20 13 22 23 23 23 17 15 11 12 13 12 12 13 13 13 13 12 12 12 11 11 8 5 4 4 5 7 8 8 7 3 5 4 5 9 9 8
23 12 11 11 12 12 12 12 12 11 11 11 13 13 13 12 13 12 12 10 7 6 6 6 7 6 5 7 4 5 2 2 4 4 6 9 9 8
12 11 12 11 12 13 13 13 12 16 12 13 12 12 12 12 12 12 9 7 6 5 5 5 6 6 3 2 12 5 3 3 3 5 6 11 10 8
10 11 11 12 12 13 13 12 13 13 14 11 12 12 12 11 15 9 10 10 8 6 6 5 6 5 3 4 3 18 3 4 7 9 8 8 9 7
10 11 12 12 12 13 12 12 13 13 12 12 12 11 11 10 10 9 9 9 8 7 6 4 5 6 5 4 3 5 18 5 8 9 10 9 11 21
11 11 11 12 12 12 12 12 13 13 14 12 10 10 10 10 9 8 8 15 13 5 6 5 4 7 4 3 4 8 9 20 13 8 7 9 8 8
11 12 12 12 12 12 12 12 12 13 12 11 11 10 10 9 8 8 7 8 7 5 4 3 4 2 5 5 7 8 8 8 14 22 21 13 2 4
12 12 12 12 12 12 12 12 12 12 12 11 10 10 9 10 8 6 6 7 6 4 3 3 3 3 5 6 8 6 8 8 7 9 9 11 20 22
Wind_Direction
307 303 300 300 296 300 297 298 303 303 300 306 304 307 301 315 286 317 298 308 301 304 298 295 287 293 293 295 289 295 294 291 287 290 285 285 280 269
305 306 303 300 303 296 297 295 292 291 292 303 304 305 300 306 299 294 290 306 294 294 292 294 294 293 295 294 293 292 290 290 291 281 281 280 276 267
304 302 304 303 301 301 304 295 293 289 293 293 296 305 302 300 302 301 289 292 285 292 296 294 294 294 290 288 285 286 285 285 284 287 287 286 286 274
306 306 302 306 302 302 296 296 297 301 293 295 302 299 296 303 299 302 299 296 294 284 287 292 290 286 287 290 286 280 279 283 289 289 282 279 275 279
307 307 305 303 304 301 302 306 298 296 302 297 295 293 297 296 297 297 304 295 289 293 300 299 298 297 292 290 286 285 287 287 286 279 278 289 270 267
307 304 299 303 301 311 298 295 299 305 297 287 292 294 295 297 300 307 306 297 300 295 298 292 288 290 290 284 289 291 285 287 291 287 282 277 279 259
303 299 301 302 301 297 301 306 310 294 296 296 297 300 303 302 305 309 296 298 294 299 293 291 290 289 285 291 285 287 284 287 288 283 280 280 279 276
299 304 304 303 303 309 313 306 300 302 304 296 289 292 302 307 306 298 299 294 297 295 292 292 290 286 282 280 284 287 288 288 284 279 276 274 274 274
306 309 305 309 315 315 300 301 305 308 302 302 296 302 304 303 303 296 290 291 291 297 292 285 293 279 281 279 290 291 287 288 289 283 277 273 265 261
308 309 310 316 310 303 308 312 307 307 295 304 292 298 295 294 285 290 299 292 284 285 284 287 295 292 286 285 293 291 284 284 280 279 280 267 258 251
308 314 309 304 305 316 317 312 307 307 302 304 306 304 304 304 305 300 293 293 290 289 299 289 293 299 303 288 279 283 313 317 308 296 283 276 271 268
310 306 306 311 315 320 315 313 312 310 311 306 308 305 304 296 296 292 293 292 292 291 298 294 291 294 295 266 287 311 300 305 298 293 292 279 263 246
312 309 309 311 319 315 318 320 308 312 316 313 308 303 298 296 296 293 290 288 289 286 286 288 287 286 278 290 291 297 298 295 295 289 284 264 239 222
310 309 308 318 318 320 323 316 319 323 315 306 303 302 305 305 303 298 290 283 276 277 283 278 275 276 280 290 299 304 300 294 296 300 305 4 198 194
315 311 321 318 323 324 321 320 323 313 307 305 307 307 308 305 301 296 292 284 280 276 274 270 264 276 307 295 294 296 303 300 317 327 337 36 19 70
315 312 317 323 324 319 319 315 312 310 311 313 309 307 305 306 303 303 298 295 288 288 299 352 356 301 287 278 272 280 276 301 335 338 38 43 31 44
324 320 322 324 318 317 315 314 313 313 315 314 312 310 309 309 309 308 301 305 313 345 338 344 333 299 279 331 300 250 296 350 356 348 66 66 38 39
327 326 320 319 317 318 317 316 316 318 318 314 310 309 308 311 308 311 318 318 330 339 331 335 332 323 243 115 18 358 12 30 26 36 59 83 66 54
324 318 317 318 317 315 313 315 315 316 314 311 308 310 310 310 320 327 333 335 337 339 339 342 341 338 346 55 341 9 22 34 72 62 57 66 82 70
318 318 316 317 315 313 313 313 314 314 314 311 314 310 310 310 314 326 329 324 329 337 339 358 359 1 14 11 4 19 37 63 85 81 73 72 74 74
319 317 317 314 312 311 311 312 312 311 313 313 307 308 310 311 319 322 321 326 331 333 340 359 343 336 291 293 59 52 52 59 65 76 81 78 74 79
321 317 315 312 311 311 313 313 312 313 312 311 310 308 310 313 315 315 315 314 317 328 336 8 348 344 52 58 60 58 59 53 51 62 57 55 94 92
316 314 313 312 311 312 312 313 312 310 309 308 307 311 324 321 316 308 311 314 320 346 345 46 21 27 59 80 78 71 70 65 68 70 55 73 105 99